Frankfort, MI

2:43 PM EDT on August 25, 2016 (GMT -0400)
Frankfort

Weather History for KFKS - January, 2013

Change the Weather History Date:

Tuesday, January 22, 2013

  Actual Average (KTVC) Record (KTVC)
Temperature  
Mean Temperature 4 °F 21 °F  
Max Temperature 9 °F 27 °F 49 °F (2002)
Min Temperature 0 °F 15 °F -10 °F (1954)
Degree Days  
Heating Degree Days 61 44  
Month to date heating degree days 953  
Since 1 July heating degree days 3761  
Moisture  
Dew Point -4 °F    
Average Humidity 70    
Maximum Humidity 75    
Minimum Humidity 63    
Precipitation  
Precipitation 0.00 in 0.08 in 0.72 in (1933)
Month to date precipitation 2.10  
Year to date precipitation 2.10  
Sea Level Pressure  
Sea Level Pressure 30.19 in    
Wind  
Wind Speed 12 mph (NW)    
Max Wind Speed 22 mph    
Max Gust Speed 28 mph    
Visibility 4 miles    
Events Snow    
T = Trace of Precipitation, MM = Missing Value Source: NWS Daily Summary

Daily Weather History Graph

Daily Weather History Graph

Search for Another Location

Airport or City:

Trip Planner

Search our weather history database for the weather conditions in past years. The results will help you decide how hot, cold, wet, or windy it might be!

Date:

Astronomy

Jan. 22, 2013 Rise Set
Actual Time 8:13 AM EST 5:40 PM EST
Civil Twilight 7:41 AM EST 6:12 PM EST
Nautical Twilight 7:05 AM EST 6:47 PM EST
Astronomical Twilight 6:31 AM EST 7:22 PM EST
Moon 2:00 PM EST (1/22) 4:35 AM EST (1/22)
Length of Visible Light 10h 30m
Length of Day
9h 26m
Waxing Gibbous, 82% of the Moon is Illuminated
Jan 22
Waxing Gibbous
Jan 26
Full
Feb 3
Last Quarter
Feb 10
New
Feb 17
First Quarter

Hourly Weather History & Observations

Time (EST) Temp. Windchill Dew Point Humidity Pressure Visibility Wind Dir Wind Speed Gust Speed Precip Events Conditions
12:35 AM 0.1 °F -16.9 °F -7.4 °F 70% 30.12 in 2.5 mi NW 11.5 mph 19.6 mph N/A Snow Light Snow
12:55 AM 0.1 °F -18.5 °F -6.7 °F 73% 30.11 in 2.0 mi NW 13.8 mph 19.6 mph N/A Snow Light Snow
1:15 AM 0.3 °F -16.7 °F -5.8 °F 75% 30.11 in 1.2 mi WNW 11.5 mph 23.0 mph N/A Snow Light Snow
1:35 AM 0.3 °F -20.2 °F -6.2 °F 74% 30.11 in 1.8 mi NW 17.3 mph 23.0 mph N/A Snow Light Snow
2:15 AM 0.5 °F -17.3 °F -6.0 °F 74% 30.12 in 1.8 mi NW 12.7 mph 20.7 mph N/A Snow Light Snow
2:35 AM 0.9 °F -16.8 °F -5.6 °F 74% 30.12 in 1.5 mi NW 12.7 mph 23.0 mph N/A Snow Light Snow
2:56 AM 0.9 °F -16.8 °F -6.2 °F 72% 30.13 in 2.0 mi NW 12.7 mph 19.6 mph N/A Snow Light Snow
3:16 AM 1.0 °F -15.8 °F -5.3 °F 75% 30.13 in 1.5 mi NW 11.5 mph - N/A Snow Light Snow
3:36 AM 1.0 °F -18.7 °F -5.1 °F 75% 30.13 in 1.5 mi WNW 16.1 mph 23.0 mph N/A Snow Light Snow
3:56 AM 1.0 °F -19.9 °F -5.6 °F 74% 30.14 in 1.8 mi WNW 18.4 mph - N/A Snow Light Snow
4:16 AM 1.2 °F -17.1 °F -5.3 °F 74% 30.14 in 1.8 mi WNW 13.8 mph 20.7 mph N/A Snow Light Snow
4:36 AM 1.2 °F -17.8 °F -5.4 °F 74% 30.14 in 1.8 mi NW 15.0 mph 18.4 mph N/A Snow Light Snow
4:56 AM 1.2 °F -17.1 °F -6.0 °F 72% 30.15 in 2.5 mi NW 13.8 mph 21.9 mph N/A Snow Light Snow
5:11 AM 1.2 °F -19.1 °F -6.2 °F 71% 30.15 in 2.5 mi NW 17.3 mph 27.6 mph N/A Snow Light Snow
5:31 AM 1.4 °F -16.1 °F -6.9 °F 68% 30.15 in 4.0 mi WNW 12.7 mph 19.6 mph N/A Snow Light Snow
5:51 AM 1.4 °F -16.1 °F -6.7 °F 69% 30.15 in 5.0 mi WNW 12.7 mph 18.4 mph N/A   Haze
6:12 AM 1.4 °F -18.2 °F -6.5 °F 69% 30.16 in 4.0 mi NW 16.1 mph 23.0 mph N/A   Haze
6:32 AM 1.4 °F -15.3 °F -7.2 °F 67% 30.17 in 3.0 mi NW 11.5 mph 24.2 mph N/A   Haze
6:52 AM 1.6 °F -19.7 °F -6.5 °F 69% 30.17 in 3.0 mi WNW 19.6 mph 26.5 mph N/A   Haze
7:12 AM 1.4 °F -21.0 °F -6.3 °F 70% 30.17 in 3.0 mi NW 21.9 mph - N/A   Haze
7:32 AM 1.2 °F -19.1 °F -7.4 °F 67% 30.18 in 3.0 mi WNW 17.3 mph 23.0 mph N/A   Haze
7:52 AM 1.4 °F -16.9 °F -6.3 °F 70% 30.18 in 2.5 mi NW 13.8 mph 23.0 mph N/A Snow Light Snow
8:12 AM 1.2 °F -17.1 °F -6.0 °F 72% 30.18 in 2.0 mi WNW 13.8 mph 19.6 mph N/A Snow Light Snow
8:32 AM 1.4 °F -17.6 °F -5.8 °F 72% 30.18 in 1.5 mi WNW 15.0 mph 20.7 mph N/A Snow Light Snow
8:52 AM 1.8 °F -18.9 °F -6.0 °F 70% 30.19 in 2.0 mi NW 18.4 mph 23.0 mph N/A   Haze
9:12 AM 1.8 °F -18.9 °F -6.2 °F 69% 30.20 in 1.5 mi WNW 18.4 mph 26.5 mph N/A   Haze
9:33 AM 1.9 °F -16.2 °F -6.0 °F 69% 30.20 in 3.0 mi NNW 13.8 mph 20.7 mph N/A   Haze
9:53 AM 2.1 °F -16.0 °F -5.1 °F 72% 30.21 in 1.8 mi WNW 13.8 mph 19.6 mph N/A Snow Light Snow
10:13 AM 2.1 °F -14.4 °F -5.4 °F 71% 30.21 in 1.8 mi WNW 11.5 mph 23.0 mph N/A Snow Light Snow
10:53 AM 2.3 °F -15.0 °F -4.9 °F 72% 30.22 in 1.8 mi NW 12.7 mph 19.6 mph N/A Snow Light Snow
11:13 AM 2.8 °F -11.7 °F -4.9 °F 70% 30.22 in 3.0 mi NW 9.2 mph 16.1 mph N/A Snow Light Snow
11:33 AM 2.8 °F -14.3 °F -4.9 °F 70% 30.22 in 2.0 mi WNW 12.7 mph 19.6 mph N/A Snow Light Snow
11:53 AM 3.2 °F -13.1 °F -3.5 °F 74% 30.22 in 1.5 mi WNW 11.5 mph - N/A Snow Light Snow
12:13 PM 3.2 °F -13.1 °F -3.8 °F 73% 30.22 in 1.2 mi WNW 11.5 mph 19.6 mph N/A Snow Light Snow
12:34 PM 3.6 °F -13.4 °F -3.1 °F 74% 30.22 in 1.2 mi NW 12.7 mph - N/A Snow Light Snow
12:54 PM 3.6 °F -12.6 °F -4.0 °F 71% 30.21 in 1.5 mi NW 11.5 mph 17.3 mph N/A Snow Light Snow
1:14 PM 3.7 °F -10.6 °F -3.6 °F 71% 30.22 in 2.0 mi WNW 9.2 mph 16.1 mph N/A Snow Light Snow
1:34 PM 3.9 °F -12.2 °F -3.6 °F 71% 30.21 in 1.8 mi NW 11.5 mph - N/A Snow Light Snow
1:54 PM 4.1 °F -11.1 °F -4.0 °F 69% 30.21 in 2.0 mi WNW 10.4 mph - N/A Snow Light Snow
2:14 PM 4.1 °F -11.1 °F -3.3 °F 71% 30.21 in 2.0 mi WNW 10.4 mph - N/A Snow Light Snow
2:34 PM 4.1 °F -10.2 °F -3.8 °F 70% 30.21 in 2.0 mi WNW 9.2 mph - N/A Snow Light Snow
2:54 PM 4.1 °F -11.1 °F -4.4 °F 68% 30.21 in 3.0 mi NW 10.4 mph - N/A Snow Light Snow
3:14 PM 4.5 °F -9.8 °F -4.2 °F 67% 30.21 in 3.0 mi WNW 9.2 mph 16.1 mph N/A Snow Light Snow
3:35 PM 4.5 °F -6.3 °F -3.1 °F 71% 30.21 in 2.5 mi NW 5.8 mph - N/A Snow Light Snow
3:55 PM 4.6 °F -10.4 °F -3.8 °F 68% 30.22 in 3.0 mi WNW 10.4 mph - N/A Snow Light Snow
4:15 PM 4.8 °F -8.3 °F -5.4 °F 63% 30.22 in 10.0 mi WNW 8.1 mph - N/A   Overcast
4:35 PM 4.8 °F -8.3 °F -2.6 °F 72% 30.22 in 2.5 mi WNW 8.1 mph - N/A Snow Light Snow
4:55 PM 5.2 °F -7.9 °F -4.0 °F 66% 30.22 in 5.0 mi WNW 8.1 mph - N/A Snow Light Snow
5:15 PM 5.0 °F -9.1 °F -3.1 °F 69% 30.22 in 3.0 mi WNW 9.2 mph - N/A Snow Light Snow
5:35 PM 5.0 °F -9.1 °F -3.3 °F 69% 30.23 in 3.0 mi WNW 9.2 mph - N/A Snow Light Snow
5:55 PM 5.2 °F -10.6 °F -3.1 °F 69% 30.23 in 5.0 mi WNW 11.5 mph - N/A Snow Light Snow
6:15 PM 5.4 °F -9.6 °F -4.0 °F 65% 30.23 in 7.0 mi WNW 10.4 mph - N/A Snow Light Snow
6:35 PM 5.7 °F -9.9 °F -4.0 °F 64% 30.23 in 10.0 mi WNW 11.5 mph 17.3 mph N/A   Overcast
6:56 PM 5.9 °F -5.8 °F -2.7 °F 68% 30.23 in 5.0 mi WNW 6.9 mph - N/A Snow Light Snow
7:16 PM 6.4 °F -7.3 °F -3.1 °F 65% 30.23 in 10.0 mi WNW 9.2 mph - N/A   Overcast
7:36 PM 6.8 °F -2.0 °F -1.5 °F 69% 30.23 in 7.0 mi NNW 4.6 mph - N/A Snow Light Snow
7:56 PM 7.2 °F -8.1 °F -1.7 °F 67% 30.23 in 10.0 mi NW 11.5 mph 16.1 mph N/A Snow Light Snow
8:16 PM 7.3 °F -5.2 °F -1.3 °F 68% 30.23 in 10.0 mi NW 8.1 mph - N/A   Overcast
8:36 PM 7.7 °F -2.4 °F -0.6 °F 69% 30.22 in 7.0 mi NNW 5.8 mph 17.3 mph N/A Snow Light Snow
8:51 PM 7.5 °F -5.0 °F -0.9 °F 68% 30.22 in 7.0 mi NW 8.1 mph - N/A Snow Light Snow
9:11 PM 7.7 °F -3.7 °F -0.4 °F 70% 30.22 in 7.0 mi NW 6.9 mph - N/A Snow Light Snow
9:32 PM 7.9 °F -3.5 °F -1.1 °F 67% 30.22 in 7.0 mi NW 6.9 mph - N/A   Overcast
9:52 PM 8.2 °F -5.1 °F -0.2 °F 68% 30.22 in 7.0 mi NW 9.2 mph - N/A   Overcast
10:12 PM 8.4 °F -4.9 °F -0.4 °F 67% 30.22 in 7.0 mi WNW 9.2 mph - N/A   Overcast
10:32 PM 8.4 °F -3.9 °F -0.0 °F 68% 30.22 in 10.0 mi NW 8.1 mph - N/A   Overcast
10:52 PM 8.6 °F -4.7 °F -0.6 °F 66% 30.23 in 10.0 mi NW 9.2 mph - N/A   Overcast
11:12 PM 8.6 °F -4.7 °F -0.4 °F 67% 30.23 in 10.0 mi NW 9.2 mph - N/A   Overcast
11:32 PM 8.6 °F -4.7 °F -0.9 °F 65% 30.22 in 10.0 mi NW 9.2 mph - N/A   Overcast
11:52 PM 8.6 °F 0.1 °F -1.5 °F 64% 30.23 in 10.0 mi NNW 4.6 mph - N/A   Overcast